This is the latest recevied weather packets stored in our database for station/object K4TH. If no packets are shown the sender has not sent any weather packets the latest 1 day(s).
| Time | Temp. | Humidity | Pressure | Rain* | Wind** | Luminosity | Snow |
|---|---|---|---|---|---|---|---|
| 1778022134 | 25° C | 61% | 1012.2 hPa | 0 mm | 0.45 m/s, 55° | 29 W/m² | - |
| 1778021830 | 25° C | 60% | 1011.7 hPa | 0 mm | 0 m/s | 30 W/m² | - |
| 1778021527 | 25° C | 60% | 1011.8 hPa | 0 mm | 0.89 m/s, 76° | 25 W/m² | - |
| 1778021222 | 25° C | 59% | 1011.9 hPa | 0 mm | 0.89 m/s, 211° | 22 W/m² | - |
| 1778020920 | 25.56° C | 59% | 1011.8 hPa | 0 mm | 1.79 m/s, 149° | 28 W/m² | - |
| 1778020618 | 25.56° C | 59% | 1011.7 hPa | 0 mm | 0.89 m/s, 92° | 33 W/m² | - |
| 1778020313 | 25.56° C | 59% | 1012.1 hPa | 0 mm | 0.89 m/s, 184° | 50 W/m² | - |
| 1778020010 | 25° C | 60% | 1011.9 hPa | 0 mm | 0.89 m/s, 164° | 41 W/m² | - |
| 1778019706 | 25° C | 59% | 1012.1 hPa | 0 mm | 1.34 m/s, 175° | 40 W/m² | - |
| 1778019403 | 25° C | 59% | 1012.1 hPa | 0 mm | 0.89 m/s, 62° | 30 W/m² | - |
| 1778019099 | 25.56° C | 59% | 1012 hPa | 0 mm | 0 m/s | 26 W/m² | - |
| 1778018797 | 25.56° C | 60% | 1011.9 hPa | 0 mm | 0 m/s | 37 W/m² | - |
| 1778018495 | 25.56° C | 58% | 1012 hPa | 0 mm | 1.79 m/s, 169° | 46 W/m² | - |
| 1778018192 | 25.56° C | 60% | 1011.9 hPa | 0 mm | 1.34 m/s, 162° | 57 W/m² | - |
| 1778017890 | 25.56° C | 58% | 1011.8 hPa | 0 mm | 0.45 m/s, 83° | 61 W/m² | - |
| 1778017588 | 25.56° C | 58% | 1011.7 hPa | 0 mm | 0.89 m/s, 67° | 68 W/m² | - |
| 1778017285 | 25° C | 58% | 1011.8 hPa | 0 mm | 1.34 m/s, 183° | 62 W/m² | - |
| 1778016982 | 25° C | 59% | 1011.7 hPa | 0 mm | 0.89 m/s, 77° | 55 W/m² | - |
| 1778016679 | 25° C | 58% | 1011.6 hPa | 0 mm | 0.45 m/s, 69° | 57 W/m² | - |
| 1778016375 | 25° C | 60% | 1011.7 hPa | 0 mm | 0.89 m/s, 315° | 69 W/m² | - |
| 1778016073 | 25° C | 58% | 1011.9 hPa | 0 mm | 1.34 m/s, 161° | 69 W/m² | - |
| 1778015769 | 25° C | 58% | 1011.6 hPa | 0 mm | 0.45 m/s, 65° | 66 W/m² | - |
| 1778015467 | 25° C | 57% | 1011.9 hPa | 0 mm | 0.89 m/s, 85° | 50 W/m² | - |
| 1778015163 | 25° C | 57% | 1011.7 hPa | 0 mm | 0.89 m/s, 82° | 47 W/m² | - |
| 1778014860 | 25° C | 57% | 1012 hPa | 0 mm | 1.34 m/s, 206° | 45 W/m² | - |
* Rain latest hour (hover to see other rain measurements)
** Current wind speed in m/s (hover to see current wind gust speed)